Regional Weather Roundup
Issued by NWS

Home | Current Version | Previous Version | Text Only | Print | Product List | Glossary On
Versions: 1 2 3 4 5 6 7 8 9 10 11 12 13 14 15 16 17 18 19 20 21 22 23 24 25 26 27 28 29 30 31 32 33 34 35 36 37 38 39 40 41 42 43 44 45 46 47 48 49 50
000
ASUS44 KOUN 290410
RWROK

WEATHER ROUNDUP FOR OKLAHOMA
NATIONAL WEATHER SERVICE NORMAN OK
1000 PM CST WED JAN 28 2015

NOTE: "FAIR" INDICATES FEW OR NO CLOUDS BELOW 12,000 FEET WITH NO
      SIGNIFICANT WEATHER AND/OR OBSTRUCTIONS TO VISIBILITY.

OKZ001>007-009>012-014-015-017-290500-
NORTHWEST OKLAHOMA AND THE PANHANDLE

CITY           SKY/WX    TMP DP  RH WIND       PRES   REMARKS
GAGE           PTCLDY    54  31  41 N10       30.07R
ENID/WOODRING  MOCLDY    61  34  36 NW9       29.97R
$$

OKZ016-021>023-033>039-044-045-290500-
SOUTHWEST OKLAHOMA

CITY           SKY/WX    TMP DP  RH WIND       PRES   REMARKS
LAWTON/REGL    CLEAR     56  39  53 N8        30.00R
LAWTON/FT SILL CLEAR     59  38  45 N8        30.00R
FREDERICK      CLEAR     60  35  39 NW8       29.99R
CLINTON        MOCLDY    52  38  58 W10       30.05R
HOBART         PTCLDY    50  37  61 NW6       30.03R
ALTUS AFB      CLEAR     60  36  39 NW10      30.03R
$$

OKZ018>020-024>031-290500-
CENTRAL OKLAHOMA

CITY           SKY/WX    TMP DP  RH WIND       PRES   REMARKS
OKLAHOMA CITY  PTCLDY    56  42  59 NW7       29.98R
OKC/WILEY POST PTCLDY    63  37  38 NW7       29.99R
OKC/TINKER AFB PTCLDY    62  44  51 W2        29.98R
STILLWATER     PTCLDY    54  37  52 W6        29.96R
GUTHRIE        PTCLDY    53  41  63 SW3       29.98R
$$

OKZ008-013-054>072-290500-
NORTHEAST OKLAHOMA

CITY           SKY/WX    TMP DP  RH WIND       PRES   REMARKS
TULSA          MOCLDY    67  43  41 SW6       29.92R
TULSA/JONES    PTCLDY    59  41  51 SW5       29.94R
PONCA CITY     CLOUDY    62  35  36 W10       29.94R
BARTLESVILLE   CLOUDY    61  37  41 W10       29.91R
MUSKOGEE       CLEAR     60  41  49 NW8       29.97R
$$

OKZ032-040>043-046>053-073>077-290500-
SOUTH CENTRAL/SOUTHEAST OKLAHOMA

CITY           SKY/WX    TMP DP  RH WIND       PRES   REMARKS
ARDMORE/DWNTWN PTCLDY    63  37  39 S5        29.97R
MCALESTER      CLEAR     67  41  38 S10       29.97R
$$




USA.gov is the U.S. government's official web portal to all federal, state and local government web resources and services.